Tracking 22458 objects as of 2-Mar-2021
HD Live streaming from Space Station
objects crossing your sky now

STARLINK-2007

Track STARLINK-2007 now!
10-day predictions
STARLINK-2007 is classified as:


NORAD ID: 47602
Int'l Code: 2021-009BG
Perigee: 385.8 km
Apogee: 387.4 km
Inclination: 53.1 °
Period: 92.1 minutes
Semi major axis: 6757 km
RCS: Unknown
Launch date: February 4, 2021
Source: United States (US)
Launch site: AIR FORCE EASTERN TEST RANGE (AFETR)
aabbcc
Your satellite tracking list
Your tracking list is empty




NASA's NSSDC Master Catalog

Two Line Element Set (TLE):
1 47602U 21009BG  21060.91667824 -.00090958  00000-0 -99487-3 0  9996
2 47602  53.0542 358.0569 0001176  73.5895 145.0603 15.62851211  1820
Source of the keplerian elements: AFSPC